Probability
0 3 0 0 0 0 0 0 0 3 0 3 3 6 3 0 0 10 16 19 26 26 23 23 29 26 23 45 48 52 52 58 61 61 58 61 58 55 58 52 52 52 45 42
0 0 0 0 0 0 0 0 3 0 3 3 10 10 10 3 6 6 16 23 32 32 26 23 23 23 29 48 45 48 55 55 58 65 61 58 55 58 55 52 55 52 45 45
0 0 0 0 0 0 0 0 0 3 3 3 10 16 16 6 6 6 10 19 23 29 26 23 19 19 26 39 45 48 65 61 58 58 55 58 58 61 48 48 52 42 32 35
0 0 0 0 0 0 0 0 0 0 0 6 3 6 13 10 6 10 10 16 26 23 23 23 23 16 23 29 45 58 61 68 68 61 61 55 52 45 45 48 52 42 39 35
0 0 0 0 0 0 0 0 0 0 0 3 3 3 10 16 16 10 6 10 16 16 26 23 19 16 23 23 35 58 68 68 68 65 61 68 55 52 48 48 52 45 45 45
0 0 0 0 0 0 0 0 0 0 0 3 3 0 3 10 19 13 10 10 13 16 16 23 19 16 19 23 32 48 65 71 74 68 68 68 61 61 52 48 52 48 52 52
0 0 0 0 0 0 0 3 3 0 3 0 0 0 16 16 10 10 16 16 16 13 23 19 19 23 26 26 35 48 65 68 74 65 65 68 71 52 52 55 45 45 45 48
0 0 0 0 0 0 0 0 3 0 0 0 0 10 16 13 10 10 16 19 19 16 13 19 23 26 32 32 42 55 61 68 68 65 71 74 68 48 48 52 45 45 45 48
0 0 0 0 0 0 0 0 0 0 0 3 3 10 16 13 13 10 13 19 16 10 13 19 23 26 32 35 48 61 61 71 71 68 71 74 65 52 45 45 45 45 45 42
0 0 0 0 0 0 0 0 0 0 10 0 0 3 16 13 10 16 13 10 19 19 16 16 19 23 39 32 45 61 65 71 74 61 58 52 55 48 48 39 42 42 42 42
0 0 0 0 0 0 0 0 0 0 0 3 0 0 10 16 13 16 16 19 26 23 19 26 23 23 32 39 39 48 61 58 61 65 68 61 52 48 48 42 42 35 39 39
0 0 0 0 0 0 0 0 0 0 6 0 0 0 0 16 16 16 13 16 23 32 23 23 26 29 29 29 39 52 52 45 42 52 55 55 55 48 45 35 35 35 39 29
0 0 0 0 0 0 0 0 0 0 0 0 0 3 16 13 16 16 13 16 23 35 23 26 26 32 29 32 42 39 39 42 42 48 52 48 45 42 42 39 39 35 35 32
0 0 0 0 0 0 0 0 0 0 0 0 0 6 13 13 23 19 23 23 29 32 32 26 26 32 32 32 39 39 35 45 42 42 45 42 42 39 39 39 39 39 35 29
0 0 0 0 0 0 0 0 0 0 0 0 6 6 13 13 19 23 23 16 19 26 26 29 32 35 39 39 42 35 29 32 32 35 39 39 42 42 39 35 39 39 32 23
0 0 0 0 0 0 0 0 0 0 0 0 3 10 16 13 23 23 19 23 23 26 26 29 39 35 35 32 35 35 29 32 42 42 29 32 32 35 32 29 29 29 29 23
0 0 3 0 0 0 0 0 0 0 0 0 3 16 19 13 26 23 19 16 29 39 32 35 35 35 35 39 39 35 26 26 32 35 35 32 32 26 26 23 32 32 32 29
3 6 3 0 0 0 0 3 0 0 0 0 3 10 13 10 13 23 23 26 29 29 35 32 29 32 29 35 23 29 23 23 26 32 35 32 26 29 29 29 29 29 26 29
0 16 6 0 0 0 3 0 0 0 3 3 3 19 16 10 13 23 26 29 35 39 39 29 26 26 26 26 23 19 23 16 23 23 29 26 26 26 29 29 29 29 29 23
0 6 3 0 0 0 0 0 0 0 3 13 13 16 23 16 26 23 32 32 35 39 39 29 23 26 26 26 23 23 19 16 23 29 26 26 26 23 26 29 29 26 29 23
3 6 0 0 0 0 0 0 0 0 13 13 13 16 29 42 42 42 35 42 39 35 35 29 26 29 35 26 29 29 26 26 26 26 26 23 23 26 26 26 26 32 26 23
0 3 6 6 0 3 0 0 6 32 26 6 13 23 26 32 35 35 39 39 39 35 35 26 32 32 35 39 32 26 29 26 29 26 26 23 26 19 23 29 29 32 26 26
0 3 6 10 3 10 6 10 6 6 13 10 10 19 23 26 29 35 39 39 35 29 35 29 32 32 32 39 35 29 35 29 32 32 32 26 23 26 29 26 23 23 26 19
3 6 10 13 6 6 3 6 6 10 10 13 16 13 16 23 32 35 32 42 35 32 26 29 32 29 35 29 29 35 29 35 35 35 29 23 29 29 29 26 19 23 16 16
3 3 10 16 6 6 6 10 10 10 6 10 10 10 10 19 26 29 35 39 39 32 26 29 35 32 29 32 32 26 29 35 35 32 29 23 26 19 23 16 13 13 13 16
6 6 3 6 13 3 16 10 10 10 6 13 13 13 16 19 23 23 26 35 35 29 26 35 32 32 32 32 32 29 29 32 32 29 26 23 16 23 16 16 10 10 6 6
Height
5907 5909 5909 5910 5911 5912 5912 5912 5912 5913 5912 5912 5910 5909 5907 5905 5903 5901 5899 5897 5896 5894 5893 5891 5890 5889 5888 5887 5886 5885 5883 5882 5881 5880 5879 5877 5876 5875 5874 5873 5872 5871 5870 5870
5907 5908 5909 5910 5911 5912 5913 5913 5913 5912 5911 5911 5909 5908 5906 5904 5902 5901 5900 5897 5896 5894 5892 5891 5890 5889 5888 5887 5886 5884 5883 5882 5881 5879 5878 5877 5876 5875 5873 5872 5871 5871 5870 5868
5906 5908 5908 5909 5911 5912 5912 5912 5913 5912 5910 5910 5908 5906 5905 5903 5902 5901 5899 5897 5895 5894 5893 5891 5890 5888 5887 5886 5885 5884 5882 5881 5880 5879 5878 5876 5875 5874 5873 5872 5871 5869 5868 5867
5905 5906 5907 5908 5910 5911 5911 5912 5911 5910 5909 5908 5907 5905 5903 5902 5901 5900 5898 5897 5895 5893 5892 5891 5889 5888 5886 5885 5884 5883 5882 5881 5879 5878 5877 5875 5874 5873 5872 5870 5869 5868 5867 5865
5904 5905 5905 5907 5908 5909 5909 5909 5909 5909 5908 5908 5906 5903 5900 5901 5899 5899 5897 5895 5894 5892 5891 5890 5888 5887 5886 5884 5883 5882 5881 5880 5878 5877 5875 5874 5873 5872 5870 5869 5867 5866 5864 5863
5902 5902 5903 5905 5906 5907 5907 5907 5907 5906 5906 5905 5904 5902 5899 5899 5899 5897 5896 5894 5893 5891 5890 5888 5887 5886 5885 5883 5882 5881 5880 5878 5877 5875 5874 5872 5871 5870 5868 5867 5865 5864 5862 5860
5899 5900 5901 5903 5904 5905 5906 5907 5906 5905 5904 5903 5903 5901 5899 5898 5897 5896 5894 5893 5891 5890 5889 5887 5885 5884 5883 5882 5881 5879 5878 5877 5875 5874 5872 5871 5869 5868 5866 5864 5863 5861 5860 5858
5899 5900 5900 5900 5901 5903 5904 5905 5906 5905 5903 5903 5901 5899 5897 5896 5895 5894 5892 5891 5889 5888 5887 5885 5884 5883 5881 5880 5879 5878 5877 5875 5874 5872 5870 5868 5867 5865 5863 5861 5860 5858 5856 5855
5898 5900 5899 5898 5899 5901 5901 5902 5903 5903 5902 5901 5899 5897 5895 5893 5893 5892 5890 5888 5887 5886 5884 5883 5882 5880 5879 5878 5877 5876 5874 5873 5871 5869 5868 5866 5864 5862 5860 5858 5856 5854 5853 5851
5896 5897 5897 5897 5897 5897 5899 5899 5900 5900 5899 5898 5897 5895 5893 5891 5891 5888 5886 5885 5883 5883 5881 5880 5879 5878 5877 5876 5874 5873 5872 5870 5868 5867 5865 5863 5860 5858 5856 5854 5852 5850 5848 5846
5893 5894 5895 5895 5894 5895 5895 5896 5895 5896 5895 5895 5894 5893 5889 5889 5887 5885 5883 5882 5880 5879 5878 5877 5876 5874 5873 5872 5871 5870 5868 5866 5865 5863 5861 5859 5857 5855 5853 5851 5849 5846 5844 5842
5888 5890 5891 5892 5892 5892 5893 5893 5893 5894 5892 5891 5890 5890 5885 5885 5884 5882 5879 5879 5877 5876 5875 5873 5871 5870 5869 5868 5867 5865 5864 5862 5861 5859 5857 5855 5853 5851 5849 5847 5844 5842 5840 5838
5883 5885 5887 5889 5891 5889 5888 5889 5889 5889 5889 5887 5887 5886 5881 5881 5880 5879 5877 5874 5873 5872 5870 5869 5867 5866 5865 5864 5862 5860 5859 5858 5856 5855 5853 5851 5849 5846 5844 5842 5840 5837 5835 5833
5879 5881 5883 5885 5884 5884 5884 5884 5885 5885 5884 5884 5883 5881 5877 5875 5876 5875 5872 5871 5869 5867 5865 5865 5863 5862 5861 5859 5857 5854 5854 5852 5851 5849 5848 5846 5844 5841 5839 5837 5835 5832 5830 5827
5874 5876 5876 5878 5879 5879 5880 5880 5881 5881 5880 5880 5878 5876 5873 5870 5871 5870 5868 5866 5865 5863 5862 5861 5860 5858 5856 5855 5853 5850 5848 5847 5846 5844 5843 5841 5838 5836 5834 5832 5829 5827 5824 5821
5868 5869 5870 5871 5872 5874 5875 5876 5876 5877 5876 5874 5872 5870 5868 5866 5865 5864 5863 5861 5859 5858 5857 5856 5854 5853 5851 5849 5848 5846 5844 5842 5841 5838 5837 5835 5833 5830 5828 5826 5824 5821 5818 5815
5862 5863 5864 5865 5867 5868 5870 5871 5871 5870 5869 5869 5867 5864 5862 5861 5860 5859 5857 5856 5854 5852 5851 5850 5848 5847 5845 5844 5842 5840 5838 5836 5835 5833 5831 5829 5827 5825 5822 5820 5817 5815 5812 5809
5856 5856 5858 5859 5861 5861 5864 5864 5865 5864 5863 5863 5861 5859 5857 5855 5854 5853 5851 5849 5848 5847 5845 5844 5842 5841 5839 5837 5836 5834 5832 5830 5829 5827 5825 5823 5820 5818 5816 5813 5811 5808 5805 5803
5849 5850 5851 5852 5853 5855 5855 5857 5857 5857 5856 5855 5854 5853 5851 5850 5849 5847 5845 5843 5842 5841 5839 5837 5836 5835 5833 5831 5829 5828 5826 5825 5822 5820 5818 5816 5814 5811 5809 5807 5804 5802 5799 5796
5841 5843 5845 5845 5846 5847 5849 5849 5849 5850 5849 5847 5846 5845 5844 5843 5843 5841 5839 5837 5835 5834 5833 5831 5829 5828 5827 5825 5823 5821 5819 5818 5816 5814 5811 5809 5807 5805 5802 5800 5797 5795 5792 5790
5834 5836 5837 5838 5839 5840 5841 5841 5841 5844 5841 5839 5839 5838 5837 5837 5836 5835 5833 5831 5829 5828 5826 5825 5823 5821 5820 5818 5817 5815 5813 5811 5809 5807 5805 5803 5800 5798 5795 5793 5790 5787 5785 5783
5826 5828 5830 5831 5832 5835 5832 5832 5833 5833 5833 5833 5832 5831 5831 5830 5829 5828 5827 5825 5823 5821 5819 5817 5816 5815 5814 5812 5810 5808 5806 5804 5803 5800 5798 5796 5794 5791 5789 5786 5783 5780 5778 5775
5818 5821 5822 5823 5824 5823 5822 5824 5824 5824 5825 5825 5825 5824 5824 5823 5822 5821 5820 5818 5816 5815 5813 5811 5810 5808 5807 5805 5803 5802 5800 5798 5796 5794 5792 5789 5787 5785 5782 5779 5776 5773 5771 5768
5809 5810 5813 5814 5814 5815 5815 5815 5816 5817 5817 5817 5817 5817 5817 5816 5814 5814 5813 5811 5810 5808 5806 5805 5803 5802 5800 5798 5796 5795 5793 5791 5789 5787 5785 5783 5781 5778 5776 5773 5770 5767 5764 5762
5800 5802 5804 5805 5807 5806 5806 5807 5809 5809 5809 5809 5809 5809 5808 5808 5807 5806 5805 5804 5802 5801 5798 5797 5797 5795 5793 5791 5789 5787 5786 5784 5782 5780 5778 5776 5774 5772 5769 5767 5764 5761 5758 5756
5792 5794 5795 5796 5797 5797 5798 5799 5800 5801 5801 5801 5801 5801 5800 5799 5799 5798 5797 5796 5795 5794 5793 5791 5790 5788 5786 5784 5782 5780 5779 5777 5775 5773 5771 5769 5768 5765 5763 5761 5758 5755 5752 5750
Wind_Speed
6 5 5 2 2 2 2 3 4 4 4 5 7 8 9 11 12 11 11 11 10 10 9 9 9 9 9 9 10 10 10 9 8 9 9 10 10 9 8 8 8 9 9 10
5 6 5 5 5 5 5 5 6 6 7 6 8 9 9 9 10 11 12 12 11 10 9 9 9 9 10 10 10 10 10 10 9 9 9 10 10 10 10 9 9 10 10 11
7 8 7 6 6 6 5 5 6 8 8 7 10 9 9 9 11 11 12 12 12 12 11 10 10 10 10 10 11 11 10 10 10 10 10 11 11 11 11 11 11 12 12 12
9 9 8 7 7 7 7 7 9 10 9 7 9 11 12 11 12 11 12 13 13 13 12 11 10 10 11 11 11 10 10 11 11 11 11 11 11 11 12 12 13 13 13 14
9 10 9 9 9 9 8 8 10 9 9 9 12 15 13 12 11 10 12 14 14 14 13 12 12 12 11 11 11 11 11 11 11 12 12 12 12 12 13 13 14 14 14 15
11 11 11 10 9 10 8 8 8 8 10 11 11 12 13 12 12 11 12 14 13 14 14 13 13 12 12 12 11 12 12 12 12 13 13 13 13 13 14 14 15 15 15 15
11 11 10 10 10 9 7 7 9 10 10 11 9 11 14 15 14 14 15 15 15 14 14 13 13 13 12 13 13 13 12 13 13 14 14 14 14 15 15 15 15 15 16 16
10 10 11 10 9 9 8 8 9 10 10 10 12 14 15 14 15 16 16 16 16 15 15 14 13 13 13 14 14 13 13 14 14 15 15 16 16 16 17 17 17 17 17 18
10 10 12 12 10 10 10 9 9 12 11 12 14 15 15 15 17 18 18 17 15 15 15 16 15 15 15 15 15 14 15 15 16 16 16 17 17 18 19 19 19 18 18 19
12 11 12 12 12 11 10 9 10 11 12 11 12 14 17 17 17 19 19 18 17 17 17 18 18 17 17 17 17 17 17 17 17 17 17 18 18 19 19 19 19 19 19 19
14 14 12 13 13 10 11 11 11 12 12 12 14 15 17 18 18 19 19 19 18 19 19 19 19 19 18 18 19 19 19 19 19 19 19 19 20 20 19 20 20 20 20 20
16 15 14 13 14 14 14 14 13 13 14 15 16 19 16 17 19 17 18 19 20 20 20 20 21 21 20 20 20 20 21 21 21 20 20 21 22 21 21 21 21 21 21 22
17 17 16 14 15 16 15 13 14 15 16 16 15 19 18 19 19 18 19 19 19 21 21 21 21 21 21 21 21 21 21 21 21 21 22 23 23 22 22 22 23 23 23 23
20 19 18 17 17 17 18 16 15 16 17 17 18 20 21 21 22 22 20 19 21 21 20 20 21 22 22 23 23 22 21 22 22 23 23 23 23 23 23 23 23 24 25 24
21 21 21 21 20 19 20 18 18 19 19 20 22 22 24 22 22 22 22 21 23 23 23 22 22 23 23 23 24 25 24 24 24 24 24 24 24 24 24 24 25 25 26 26
24 24 24 24 22 20 20 20 20 20 22 23 23 23 25 25 23 24 25 25 24 25 24 24 24 24 24 23 23 24 25 25 25 24 25 25 25 25 25 25 26 26 27 27
25 26 26 25 23 22 21 20 21 22 23 23 23 24 26 25 24 24 25 25 25 26 26 25 25 25 25 25 24 24 25 26 25 25 26 25 26 26 26 27 27 27 27 26
27 28 26 25 24 23 24 22 22 23 23 24 25 24 25 27 25 26 26 25 26 26 27 26 26 26 26 26 25 25 25 25 24 25 25 26 27 27 27 28 28 27 26 26
28 28 27 26 25 24 24 23 21 23 26 26 25 26 27 27 28 28 28 28 26 26 26 27 27 26 26 26 25 25 25 24 25 25 26 26 27 27 27 27 28 27 27 26
26 27 28 27 26 26 23 23 23 24 27 27 26 26 27 27 27 28 28 27 26 26 26 27 26 27 27 27 27 26 25 25 26 26 27 27 27 26 27 27 28 27 27 26
27 28 28 27 27 26 25 26 26 26 27 28 28 27 28 28 28 28 28 27 28 28 27 27 27 27 27 27 26 27 26 26 27 27 27 28 27 27 27 27 27 26 27 28
27 28 29 28 27 28 28 29 28 28 28 30 29 29 30 30 29 28 28 28 28 29 28 28 27 28 27 26 26 27 27 27 27 28 28 28 28 28 27 26 26 27 27 28
29 30 29 28 29 30 29 30 29 29 30 30 31 30 30 30 29 29 29 29 28 28 29 29 28 28 27 27 26 27 27 27 27 28 28 28 28 27 27 26 26 27 27 27
31 32 32 31 31 31 32 31 29 31 31 30 30 30 31 30 30 30 29 29 29 29 29 28 28 27 27 27 27 27 27 28 28 28 28 27 27 27 26 26 26 26 26 26
33 34 33 33 34 35 34 33 32 33 32 33 32 32 32 32 31 30 29 29 29 28 27 27 28 28 27 27 27 28 28 28 27 28 27 27 26 26 26 25 26 26 26 25
33 32 31 32 34 35 33 33 33 32 32 33 33 32 31 30 30 30 29 29 29 29 28 28 28 27 27 27 27 27 27 27 27 27 26 26 25 25 25 25 25 24 24 24
Wind_Direction
205 228 218 211 269 263 291 314 298 300 315 323 318 325 333 335 339 344 341 341 339 338 343 348 345 346 347 347 345 343 341 338 338 342 344 342 346 345 341 339 344 345 340 333
225 250 233 208 233 252 255 268 289 301 303 305 306 313 326 324 329 336 338 337 337 337 339 340 342 343 341 340 341 341 339 336 332 335 339 337 338 339 336 334 336 336 333 329
237 244 243 223 243 258 259 261 270 277 284 296 301 303 315 316 321 328 331 332 334 335 335 332 333 334 335 336 337 337 335 332 332 333 333 331 331 328 327 326 326 327 327 326
234 242 238 234 244 257 264 258 261 277 289 295 297 294 295 304 313 321 326 327 327 327 327 326 328 329 332 334 334 334 333 331 329 329 327 326 325 322 320 319 320 321 322 320
238 244 239 235 240 248 259 263 268 277 288 286 285 283 287 299 309 313 319 323 322 319 322 324 323 326 329 330 331 332 330 329 329 328 327 325 324 322 320 318 316 316 318 318
237 245 239 237 240 245 258 279 290 284 277 273 279 287 292 297 308 307 310 318 318 317 319 321 321 324 323 323 325 325 326 326 325 326 327 326 325 324 323 320 318 316 317 317
243 244 250 251 248 256 260 282 292 294 294 295 295 285 285 300 298 301 305 309 310 313 315 315 316 318 319 318 319 321 321 321 320 321 322 321 321 321 319 318 316 315 316 316
262 261 257 256 249 250 259 262 277 283 284 287 285 277 283 291 295 299 299 304 304 306 310 310 310 313 314 312 313 316 318 318 319 319 319 319 318 318 315 313 312 311 312 313
248 260 263 267 259 251 252 249 265 282 283 285 289 285 280 284 291 297 301 298 299 302 305 304 304 306 309 309 310 311 311 314 316 316 316 316 316 315 314 313 311 312 311 311
238 246 249 263 267 263 256 248 262 264 271 274 283 288 285 281 288 299 301 298 300 301 301 301 300 303 305 305 307 308 307 308 310 311 312 314 316 316 315 315 314 313 314 312
234 245 249 257 265 264 252 248 257 262 266 265 274 274 279 288 292 295 297 298 297 299 299 299 297 299 301 303 304 304 305 305 305 305 309 313 317 316 315 315 315 314 314 314
233 240 247 251 260 263 261 259 260 267 275 277 278 279 280 287 291 294 296 295 297 296 297 298 297 297 301 304 302 301 300 301 302 305 309 311 313 313 312 311 313 311 310 311
236 238 242 248 257 265 266 264 258 259 267 276 279 282 278 281 286 289 292 296 296 294 294 296 297 299 301 301 298 297 297 298 300 302 304 307 309 308 309 310 309 309 308 308
243 243 240 247 254 257 259 260 265 266 270 274 274 275 277 280 287 291 293 294 294 293 292 295 295 297 299 298 297 296 296 296 297 298 300 303 305 305 306 307 308 308 307 306
245 246 248 247 252 264 264 265 267 267 269 270 273 274 277 281 284 286 288 290 290 292 293 294 294 294 296 296 296 295 295 295 296 295 296 299 301 303 304 305 306 307 307 308
245 247 251 254 255 258 262 264 266 267 270 270 272 276 279 283 286 286 287 288 290 291 292 292 293 293 294 294 295 296 293 293 294 293 294 295 297 300 301 303 304 305 306 307
248 250 254 257 260 257 257 261 267 267 267 271 274 278 282 283 284 286 285 288 291 292 293 292 291 292 294 295 294 295 294 292 292 293 293 295 295 297 299 300 301 302 303 304
253 255 256 261 263 257 255 258 261 266 268 267 268 273 278 282 283 286 288 290 293 292 291 290 289 290 291 292 293 293 293 293 292 294 295 295 295 295 297 299 301 300 302 302
251 255 257 259 261 262 262 263 263 265 266 267 269 273 275 277 281 284 288 290 292 292 290 289 289 290 290 290 290 292 293 293 293 293 293 295 296 296 298 298 300 300 301 303
252 253 256 259 259 260 260 260 260 261 264 268 269 272 274 277 280 284 288 287 290 290 289 290 291 290 290 290 290 291 293 292 295 295 295 297 297 297 297 298 299 299 299 300
252 253 254 255 257 260 261 259 259 257 262 266 271 274 277 279 281 284 286 286 288 291 290 291 291 290 290 290 291 292 293 293 294 295 295 296 298 298 298 300 300 300 300 300
248 251 253 254 254 254 256 255 256 257 262 266 270 274 277 280 282 284 285 286 288 290 290 290 289 290 290 290 291 292 293 294 295 295 294 295 297 298 301 302 302 301 300 299
245 247 249 251 253 256 258 257 260 262 263 266 270 273 277 279 279 281 284 284 287 288 288 289 291 290 290 290 291 293 293 294 294 295 295 296 296 297 300 302 304 303 302 302
245 245 246 248 252 257 258 257 262 265 267 269 271 274 276 277 278 280 282 284 285 287 288 289 291 291 292 291 291 292 293 293 294 295 296 296 295 298 300 302 304 304 304 304
244 247 249 249 250 253 256 261 264 265 266 268 270 273 276 276 276 278 280 283 284 286 289 289 290 291 292 292 292 291 292 294 296 296 295 296 297 299 300 302 303 303 304 304
245 248 252 253 253 254 257 260 263 263 265 268 271 274 274 275 276 278 280 282 283 285 287 289 289 290 291 293 293 292 291 292 294 295 294 294 297 299 300 300 302 304 304 305